STARLINK-5125 (53994 NORAD) Tracking and Keplerian Element Data

This shows tracking and keplerian element data for the satellite.

Feedback or suggestion? Click here.




ElementValue
Catalog53994
NameSTARLINK-5125
Epoch Orbit130
Epoch Day324.91667824
Epoch Year2022
RAAN225.4781
Inclination53.2165
Eccentricity0.000123
Argument of Perigee99.4183
Mean Anonmoly170.9283
Mean Motion15.49893831
Decay Rate-0.00015229
L11 53994U 22125AG 22324.91667824 -.00015229 00000+0 -26080-3 0 9997
L22 53994 53.2165 225.4781 0001230 99.4183 170.9283 15.49893831 1308



Live tracking and technical data element details for STARLINK-5125 (NORAD 53994). STARLINK-5125 can be tracked NOW for your location showing map with azimuth and elevation plus other details from your city location.







IsCatalogInMostPopularTable: catalog: 53994, numindb: 4
Update: records affected: 1



GetName: 53994 STARLINK-5125

Hit Count: updated at: Fri, 09 Dec 2022 19:57:43 GMT